View from above orbital plane
|
View from above satellite
|
Ground track
|
The orbit data is extracted from the following two-line orbital elements,
1 03230U 68040B 21019.61102831 .00000157 00000-0 19864-4 0 9996
2 03230 74.0364 135.4018 0028754 97.8759 262.5688 14.90715348809801
Epoch (UTC): | 19 January 2021 14:39:52 |
Eccentricity: | 0.0028754 |
inclination: | 74.0364° |
perigee height: | 575 km |
apogee height: | 616 km |
right ascension of ascending node: | 135.4018° |
argument of perigee: | 97.8759° |
revolutions per day: | 14.90715348 |
mean anomaly at epoch: | 262.5688° |
orbit number at epoch: | 80980 |
The dashed part of the orbit path shows where the satellite is in the earth's shadow,
|
|